Regional Weather Roundup
Issued by NWS Green Bay, WI

Home | Current Version | Previous Version | Text Only | Print | Product List | Glossary Off
Versions: 1 2 3 4 5 6 7 8 9 10 11 12 13 14 15 16 17 18 19 20 21 22 23 24 25 26 27 28 29 30 31 32 33 34 35 36 37 38 39 40 41 42 43 44 45 46 47 48 49 50

000
ASUS43 KGRB 012059
RWRGRB

NORTH-CENTRAL AND NORTHEAST WISCONSIN REGIONAL WEATHER ROUNDUP
NATIONAL WEATHER SERVICE GREEN BAY WI
300 PM CST SUN FEB 01 2015

WIZ005-009-010>012-018-019-012200-
NORTH CENTRAL WISCONSIN

CITY           SKY/WX    TMP DP  RH WIND       PRES   REMARKS
IRONWOOD       CLOUDY    10   1  67 E12       30.19S WCI  -4
MANITOWISH WTR NOT AVBL
ARBOR VITAE    NOT AVBL
EAGLE RIVER    NOT AVBL
LAND O LAKES   NOT AVBL
RHINELANDER    CLOUDY    10  -2  58 NE12G20   30.11F WCI  -5
PHILLIPS       NOT AVBL
ANTIGO         NOT AVBL
TOMAHAWK       NOT AVBL
MERRILL        NOT AVBL
$$

WIZ013-073-012200-
NORTHEAST WISCONSIN

CITY           SKY/WX    TMP DP  RH WIND       PRES   REMARKS
IRON MOUNTAIN  CLOUDY    11   1  64 N15       30.15F WCI  -5
MARINETTE      CLOUDY     9   0  66 E17       30.17F WCI -10
$$

WIZ017-030-035>037-045-012200-
CENTRAL WISCONSIN

CITY           SKY/WX    TMP DP  RH WIND       PRES   REMARKS
MEDFORD        NOT AVBL
WAUSAU         CLOUDY    13   1  59 NE9G18    30.08F WCI   1
MOSINEE        NOT AVBL
MARSHFIELD     CLOUDY    14   2  58 NE15G22   30.08S WCI  -1
WISC RAPIDS    CLOUDY    13  -1  54 NE13      30.09F WCI  -2
STEVENS POINT  NOT AVBL
WAUPACA        NOT AVBL
SHAWANO        NOT AVBL
CLINTONVILLE   NOT AVBL
$$

WIZ038-039-048-051-012200-
FOX VALLEY

CITY           SKY/WX    TMP DP  RH WIND       PRES   REMARKS
NWS GREEN BAY  LGT SNOW   9   1  70 NE28G39   30.12S WCI -13
APPLETON       LGT SNOW   9   1  72 NE24G36   30.07F WCI -12
OSHKOSH        SNOW       9   4  80 N26G37    30.05S VSB 1/2 WCI -13
FOND DU LAC    HAZE       9   4  80 N28G35    30.03S VSB 1/2 WCI -13
$$

WIZ022-050-052-012200-
EAST CENTRAL WISCONSIN

CITY           SKY/WX    TMP DP  RH WIND       PRES   REMARKS
STURGEON BAY   CLOUDY     7  -2  66 N14G23    30.14F WCI -10
MANITOWOC      NOT AVBL
SHEBOYGAN      SNOW      18  13  80 NE29G37   29.99F VSB 1/2 WCI  -1
$$

LMZ563-521-522-541>543-012200-
LAKESHORE

STATION/POSITION TIME  TEMP    WIND        PRES    VSBY  WAVE
                       AIR SEA DIR/SP/G                  HT/PER
                 (UTC) (F)     (DEG/KT/KT) (MB)    (MI)  (FT/S)
SHEBOYGAN LKSHOR 2000   20      40/ 31/ 35 1017.1F
KEWAUNEE LKSHORE 2000   17      40/ 28/ 37 1018.0F
NORTHPORT PIER   2000   10      20/ 15/ 23 1022.4F
SISTER BAY LKSHO 2000    9      20/ 15/ 27   N/A
CHAMBERS ISLAND  2000    6      20/ 23/ 28 1022.0F
MENOMINEE LKSHOR 2000    7      30/ 25     1022.8F
$$



USA.gov is the U.S. government's official web portal to all federal, state and local government web resources and services.